Погода в Горки

Погода в Горки : погода сейчас, прогноз погоды и архив. Всё, что Вы хотите узнать о погоде в Горки!

Хотите узнать прогноз погоды в Горки? Тогда Вам сюда: Погода в Горки

Поиск расширенной информации на нашем сайте:

Другие новости

Новости СМИ2

Главная страница сайта

Новости сайта

03.07.2017

Напоминаем, что на нашем специализированном сайте Метеоцентр.Азия вы можете получить высокодетализированные автоматические прогнозы погоды по пунктам России, СНГ и мира в авиационном формате (включающие направление и скорость ветра, видимость, явления погоды, количество и форму облачности, нижнюю и верхнюю границу облачности).


Погода в Горки - сегодня

Время (UTC), дата Ветер
(°,м/с) 
Видим.   Явления Облачность Т
(°С)
Тd
(°С)
f(%) Тe
(°С)
Pmin
(гПа)
dP
(гПа)
Po
(мм)
O2
(г/м3)
Тmin Tmax R s Состояние
почвы
18 19.09.18 180 (Ю) 11000 м    ясно 
+15.4 +13.5 88 +22  1017.7  -0.4  745  282    +23.5       
21 19.09.18 200 (Ю) 12000 м    3/0 верхняя 
[Ci fib]
+14.1 +12.6 91 +20  1017.5  -0.3  745  283           
00 20.09.18 210 (ЮЗ) 6000 м  дымка  ясно 
+11.3 +10.8 97 +14  1017.8  745  286           
06 20.09.18 290 (З) 9000 м  дымка{туман}  ясно 
+16.2 +14.6 90 +25  1018.6  0.8  746  281  +10.1         
09 20.09.18 280 (З) 13000 м    ясно 
+21.8 +15.6 68 +32  1018.4  0.4  746  275           
12 20.09.18 240 (ЮЗ) 14000 м    ясно 
+24 +14.3 55 +32  1017.9  -0.3  746  273           
15 20.09.18 250 (З) 20000 м    ясно 
+22.9 +14.5 59 +31  1017.9  -0.1  746  274           
18 20.09.18 170 (Ю) 6000 м  дым  ясно 
+16.2 +13.5 84 +24  1019  0.4  746  281    +24.3       
21 20.09.18 140 (ЮВ) 5000 м  дымка  ясно 
+13.5 +13.2 98 +21  1019.1  -0.1  746  284           
00 21.09.18 140 (ЮВ) 4600 м  дымка  ясно 
+11.7 +11.4 98 +16  1019.5  0.2  746  286           
06 21.09.18 160 (Ю) 2900 м  дымка{туман}  ясно 
+14.4 +13.9 97 +22  1020.1  0.3  747  283  +9.8         
09 21.09.18 220 (ЮЗ) 20000 м    ясно 
+23.3 +17.4 69 +37  1019.1  -0.1  747  273           
12 21.09.18 200 (Ю) 14000 м    ясно 
+24.9 +13.9 50 +32  1018.4  -0.6  747  273           
15 21.09.18 180 (Ю) 15000 м    ясно 
+22.7 +14.6 60 +31  1017.4  -1.1  746  274           
18 21.09.18 150 (ЮВ) 16000 м    ясно 
+16.1 +11.6 75 +19  1017.4  -0.6  745  281    +25.3       
21 21.09.18 140 (ЮВ) 12000 м    ясно 
+14.2 +11.3 83 +17  1016.6  -1  745  283           
00 22.09.18 140 (ЮВ) 12000 м    ясно 
+13.4 +10.9 85 +16  1015.6  -1  744  284           
12 22.09.18 210 (ЮЗ) 6{14}  15000 м    9/4 600 м средняя, верхняя 
[Sc|Ac und|Ci sp]
+22.9 +11.7 49 +27  1009  -1  740  273           
18 22.09.18 290 (З) 6{12}  9000 м  слаб. ливневой дождь  10/8 420 м кучево-дожд., средняя 
[Cb cap|Ac As]
+9.7 +8.6 93 +8  1013.8  1.7  742  287    +24.4  0.0     
00 23.09.18 250 (З) 10 км  в посл. час ливневой дождь  10/10 210 м 
[Frnb]
+9.2 +8.8 97 +9  1012.8  -0.8  741  287      0.2     
03 23.09.18 250 (З) 10 км    10/10 240 м 
[Frnb]
+8.7 +8.2 97 +8  1012.5  -0.3  741  288         
06 23.09.18 250 (З) 14000 м    10/10 270 м 
[Frnb]
+9.1 +7.9 92 +8  1012.4  -0.1  741  288  +8       
09 23.09.18 220 (ЮЗ) 20000 м    4/4 600 м 
[Sc]
+12.5 +9.1 80 +11  1012.1  0.1  741  284           
12 23.09.18 230 (ЮЗ) 6-10{11}  20000 м    8/6 600 м средняя 
[Sc|Ac trans]
+14.7 +8.5 66 +14  1011.6  -0.3  741  282           
15 23.09.18 220 (ЮЗ) 5{12}  20000 м    8/5 300 м кучево-дожд., верхняя 
[Cb cap|Ci sp]
+12.4 +6.7 68 +12  1010.9  -0.9  740  284           
Время (UTC), дата Ветер
(°,м/с) 
Видим.   Явления Облачность Т
(°С)
Тd
(°С)
f(%) Тe
(°С)
Pmin
(гПа)
dP
(гПа)
Po
(мм)
O2
(г/м3)
Тmin Tmax R s Состояние
почвы

Для получения пояснительной информации подведите курсор к названию столбца.

ПОГОДА в Горки - архив

Всё, что Вы хотите узнать о погоде в Горки - удобно и подробно!

Выберите нужную дату (начиная с 1 января 2015* года) и нажмите кнопку "Найти".
Будут отображены архивные сводки погоды по пункту Горки, начиная с указанной даты.


Отображать данные в формате CSV (для использования в таблицах Excel)


Внимание! Наш архив погоды предназначен исключительно для личного некоммерческого использования в познавательных целях. Если Вам необходимы официальные справки о состоянии погоды (для производственных, юридических, коммерческих и т.п. целей), обращайтесь в органы Росгидромета.

*Примечание: данная дата относится к архиву по метеостанциям СССР (Россия, СНГ, Балтия).
Архив по метеостанциям Зарубежной Европы и Азии (кроме Китая) хранится 10 дней, по другим регионам земного шара (Китай, Африка, Америка, Австралия, Океания) - 1 день.

Горки - район местоположения метеостанции


Название, широта, долгота, высота метеостанции:
Горки 54.3°ш. 30.9°д. 205 м над ур. моря [Беларусь]

Дополнительная информация

В oтличие oт бoльшинства пoгoдных сайтoв мы публикуем пoдрoбную метеoинфoрмацию в детальнoм прoфессиoнальнoм фoрмате.

Характеристики температуры и влажнoсти вoздуха измеряются на высoте 2 м в тени вдали oт зданий и деревьев.
Скoрoсть ветра измеряется на высoте 10 м (на урoвне рoста челoвека скoрoсть ветра ниже в 1.5-2 раза). Если метеoстанция нахoдится в гoрoде или в лесу, тo скoрoсть ветра занижена на 2-4 м/с пo сравнению с oткрытым местoм. Скoрoсть ветра над акватoриями крупных рек и oзёр, а также на вершинах хoлмoв на 2-5 м/с выше, чем в oбычных услoвиях.
Атмoсфернoе давление в разных тoчках местнoсти мoжет значительнo oтличаться oт давления на метеoстанции, в зависимoсти oт услoвий рельефа (при пoдъёме на 10 м давление пoнижается примернo на 1 мм рт.ст.).